Zurück zum Katalog

DELTA 1 DEB

AktivSSO
NORAD 3051·DEBRIS·🇺🇸 United States

Gestartet Nov 10, 1967 von Vandenberg Space Force Base

Loading…

Nächste Überflüge (nächste 24 Stunden)

TLE

AktuellSource: Space-Track

Epoche: Sep 14, 2026, 08:53 UTC

1 03051U 67114C   26257.37034112 -.00000034  00000-0  48436-4 0  9998
2 03051 101.1748 226.5761 0089251 299.6843 218.5281 12.62295914710510

Verfolge DELTA 1 DEB in Echtzeit mit AllMySat

Download on the App Store